Regional Weather Roundup
Issued by NWS Wilmington, NC

Home | Current Version | Previous Version | Text Only | Print | Product List | Glossary On
Versions: 1 2 3 4 5 6 7 8 9 10 11 12 13 14 15 16 17 18 19 20 21 22 23 24 25 26 27 28
000
ASUS42 KILM 212213
RWRILM
RWRILM
REGIONAL HOURLY WEATHER ROUNDUP
NATIONAL WEATHER SERVICE WILMINGTON NC
600 PM EDT THU SEP 21 2017

NOTE: "FAIR" INDICATES FEW OR NO CLOUDS BELOW 12,000 FEET WITH NO
SIGNIFICANT WEATHER AND/OR OBSTRUCTIONS TO VISIBILITY.

...............WFO WILMINGTON COUNTY WARNING AREA...............

......COASTAL NC AND SC COUNTIES......

CITY           SKY/WX    TMP DP  RH WIND       PRES   REMARKS
WILMINGTON     TSTM      72  67  84 NE15      30.03R
N MYRTLE BEACH CLOUDY    78  72  81 CALM      29.97F
MYRTLE BEACH   CLOUDY    78  71  79 NW5       29.99S

......INLAND NC AND SC COUNTIES.......

CITY           SKY/WX    TMP DP  RH WIND       PRES   REMARKS
LUMBERTON      SUNNY     85  68  56 N7        29.96R
ELIZABETHTOWN  NOT AVBL
WHITEVILLE     CLOUDY    83  66  56 S8        29.96S
FLORENCE       SUNNY     88  68  51 N5        29.97R HX  91
DARLINGTON     SUNNY     82  77  84 N3        29.98R HX  90
KINGSTREE      PTSUNNY   77  68  73 CALM      29.97R
HARTSVILLE     FAIR      84  66  54 CALM      29.97S
BENNETTSVILLE  PTSUNNY   82  68  61 SW7       29.97R
CONWAY         PTSUNNY   68  68 100 SW5       29.98S
GEORGETOWN     FAIR      79  77  94 CALM      29.98S
MARION         FAIR      88  64  45 CALM      29.97R HAZE

....................REST OF NORTH CAROLINA......................

.........EASTERN NC.........

CITY           SKY/WX    TMP DP  RH WIND       PRES   REMARKS
CAPE HATTERAS  SUNNY     79  70  74 NE8       29.99S
JACKSONVILLE   LGT RAIN  71  69  93 SW6       30.01F
MOREHEAD CITY  CLOUDY    77  71  82 W3        29.99R
KENANSVILLE    PTSUNNY   72  66  83 SW3       30.03R
NEW BERN       PTSUNNY   73  71  93 SW3       30.00R
ELIZABETH CITY SUNNY     80  68  66 E6        30.00R

.........CENTRAL NC.........

CITY           SKY/WX    TMP DP  RH WIND       PRES   REMARKS
RALEIGH DURHAM CLOUDY    77  68  73 CALM      30.01S
ROCKY MOUNT    MOSUNNY   83  69  62 CALM      30.00S
ROANOKE RAPIDS NOT AVBL
FAYETTEVILLE   PTSUNNY   85  69  58 E6        29.98R
HOFFMAN        MOSUNNY   83  66  56 S7        29.98S

.........WESTERN NC.........

CITY           SKY/WX    TMP DP  RH WIND       PRES   REMARKS
CHARLOTTE      MOSUNNY   87  65  47 N9        30.01S
GREENSBORO     MOSUNNY   84  66  54 NE8       30.02S
HICKORY        NOT AVBL
BOONE          NOT AVBL
ASHEVILLE      NOT AVBL

.....................REST OF SOUTH CAROLINA.....................

.........EASTERN SC.........

CITY           SKY/WX    TMP DP  RH WIND       PRES   REMARKS
CHARLESTON     CLOUDY    77  69  76 CALM      29.97S
BEAUFORT MCAS  SUNNY     87  74  64 VRB3      29.97R THUNDER HX  95
HILTON HEAD    SUNNY     82  73  74 S6        29.98S

.........CENTRAL SC.........

CITY           SKY/WX    TMP DP  RH WIND       PRES   REMARKS
COLUMBIA       MOSUNNY   92  64  39 CALM      29.95S HX  93
ORANGEBURG     PTSUNNY   88  66  48 SE6       29.96R THUNDER HX  90
SUMTER SHAW    MOSUNNY   85  64  48 SE9       29.95S

.........WESTERN SC.........

CITY           SKY/WX    TMP DP  RH WIND       PRES   REMARKS
GREENVILLE     NOT AVBL
ROCK HILL        N/A    N/A N/A N/A MISG      30.01S
ANDERSON       CLOUDY    80  69  69 N5        30.01S
CLEMSON        NOT AVBL
GREENWOOD      SUNNY     88  65  46 N6        30.00F HX  90


...................COASTAL AND OFFSHORE REPORTS..................

................LOCAL PIERS AND NC RESERVE................


STATION/POSITION TIME  SKY/WX   TEMP    WIND        PRES    VSBY
                                AIR SEA DIR/SP/G
                 (UTC)          (F)     (DEG/KT/KT) (MB)    (MI)
JOHNY MRCER PIER 2148            70 82   10/ 22/ 28 1015.7R
NC RESRV MASNBRO 2045            81     210/  3     1015.0
OCEAN CREST PIER NOT AVBL
SPRINGMAID  PIER 2148                               1014.5F


................COASTAL AND OFFSHORE BUOYS................


STATION/POSITION TIME  SKY/WX   TEMP    WIND        PRES    VSBY
                                AIR SEA DIR/SP/G
                 (UTC)          (F)     (DEG/KT/KT) (MB)    (MI)
DIMNDSHOAL 41025 2150            77 78   40/ 10/ 12 1015.1F
WVE H/P(F/S)=  5/10 SWL H/P/D(F/S/D)=  5/ 60/10

CAPE LOOKOUT     2200            79     250/  4/  5 1015.2R
ONSLOW BAY 41036 NOT AVBL
ONSLOW BAY 41064 2108            81      20/  2/  6 1015.0F
ONSLOW BAY 41159 NOT AVBL
MASNBO INL 41110 2159               79                N/A
WVE H/P(F/S)=  3/10 SWL H/P/D(F/S/D)=  2/120/11

WILM HARBR 41108 2200               81                N/A
WVE H/P(F/S)=  2/11 SWL H/P/D(F/S/D)=  2/140/11

27SE WRITB 41037 2108            81 81  110/  6/  8 1015.1F
FRYING PAN 41013 2150            82 82  210/  4/  6 1014.5F
WVE H/P(F/S)=  3/11 SWL H/P/D(F/S/D)=  3/100/11

SUNST NRSH 41024 2108            78 80  250/  4/  8 1014.8F
CAPRS NRSH 41029 2108            81 82  200/  8/ 10 1014.7
EDISTO     41004 2150            81 82  160/  6/  8 1014.5S
WVE H/P(F/S)=  2/11 SWL H/P/D(F/S/D)=  2/130/11



..........OFFSHORE BUOYS BEYOND 100 NM OFFSHORE...........
.....IN A TRIANGLE---HAT TO BERMUDA TO BAHAMAS TO HAT.....


STATION/POSITION TIME  SKY/WX   TEMP    WIND        PRES    VSBY
                                AIR SEA DIR/SP/G
                 (UTC)          (F)     (DEG/KT/KT) (MB)    (MI)
150E HAT   41001 NOT AVBL
W BERMUDA  41048 2150            80 80  320/  6/  8 1015.4F
WVE H/P(F/S)=  8/11 SWL H/P/D(F/S/D)=  8/ 20/11

ATLANTIC S 41049 2150            82 83  110/ 10/ 12 1016.6R
WVE H/P(F/S)=  6/11 SWL H/P/D(F/S/D)=  5/310/11

E BAHAMAS  41046 2150            83 84   90/ 21/ 29 1010.4R
WVE H/P(F/S)= 18/11 SWL H/P/D(F/S/D)= 13/180/11

NE BAHAMAS 41047 2150            83 84   90/ 12/ 16 1014.3R
WVE H/P(F/S)= 10/11 SWL H/P/D(F/S/D)= 10/ 20/11

120E CANVRL41010 2150               85   60/ 12/ 16 1014.1F
WVE H/P(F/S)=  4/11 SWL H/P/D(F/S/D)=  3/11


END




USA.gov is the U.S. government's official web portal to all federal, state and local government web resources and services.